Location: Navalespino
(40.5894°N, 4.2660°W)
Time: 08:27:49
(UTC+00:00)

Cosmos 2219 - Pass Details

Date: 18 April 2024
Orbit: 834 x 858 km, 71.1° (Epoch: 19 May)

Event Time Altitude Azimuth Distance (km) Brightness Sun altitude
Rises 22:29:56 0° 336° (NNW) 3,406 7.4 -32.6°
Reaches altitude 10° 22:32:24 10° 336° (NNW) 2,464 6.4 -32.9°
Enters shadow 22:36:27 49° 337° (NNW) 1,074 3.9 -33.3°
